Wind_Speed
6 9 12 15 17 17 11 4 4 6 6 9 11 11 11 11 12 16 19 20 18 19 17 24 27 27 26 33 26 27 31 30 30 29 28 30 31 29 25 26 25 20 13 12
3 6 0 8 16 13 10 13 12 11 8 7 8 9 11 13 15 16 16 16 18 18 24 27 28 27 29 29 29 25 29 30 28 30 32 31 32 30 31 30 29 29 28 25
2 3 4 2 8 9 11 14 5 6 5 6 9 11 12 12 14 14 15 16 17 17 22 24 29 28 27 26 29 31 29 28 30 30 30 30 30 32 33 31 32 32 32 30
3 3 2 4 3 10 15 11 8 8 7 8 12 13 12 13 13 13 13 13 14 18 21 24 24 29 27 27 27 28 28 28 28 28 26 26 28 29 30 30 29 32 35 33
3 2 4 4 3 2 4 6 9 4 4 9 8 5 12 12 12 12 12 15 17 19 20 22 24 22 24 28 27 27 28 29 28 26 25 25 26 26 26 27 30 31 31 33
2 3 4 3 5 4 4 3 8 7 4 7 6 3 4 10 11 12 13 14 15 15 18 21 23 23 24 26 29 29 27 26 27 28 30 29 28 26 25 24 24 24 29 31
3 1 3 7 8 3 3 3 4 6 8 8 6 5 5 7 11 12 12 16 15 17 19 20 21 21 25 26 26 26 25 23 27 27 26 27 26 28 26 24 24 26 26 29
1 0 2 12 1 1 6 6 6 5 7 11 10 9 8 8 9 13 15 16 17 17 20 22 24 23 23 26 22 21 24 24 24 23 24 25 24 24 24 23 22 23 24 24
3 3 4 5 9 7 4 8 6 7 7 9 8 7 6 6 8 11 13 12 13 16 17 20 20 19 18 19 18 18 18 21 21 20 22 22 25 26 24 23 22 20 20 20
4 4 7 6 9 9 9 8 8 9 9 8 9 7 6 6 8 10 11 13 13 14 17 18 19 19 18 17 17 17 18 18 18 19 19 20 20 20 22 23 21 21 21 21
3 6 7 7 8 8 9 10 11 11 10 8 8 8 7 7 9 10 11 12 13 15 15 17 17 17 17 17 17 16 16 18 18 17 18 17 17 18 16 19 21 18 18 17
1 6 4 4 6 6 8 8 7 8 10 11 9 8 8 9 9 10 13 13 14 15 15 15 16 18 19 18 17 17 16 17 17 15 15 15 15 13 13 15 17 17 19 19
4 4 9 10 7 9 9 8 11 12 11 9 10 9 10 10 10 11 12 13 14 13 13 14 15 18 21 20 16 15 14 14 13 13 12 12 12 13 13 11 15 17 18 18
12 13 8 6 5 10 13 12 12 13 11 11 10 10 9 9 9 10 11 10 10 11 12 13 16 20 20 19 18 15 15 16 14 12 11 11 11 11 10 11 12 13 16 16
3 2 7 14 13 10 11 9 8 7 8 9 9 8 7 8 8 7 7 7 7 9 12 15 18 21 21 19 17 15 13 13 14 12 11 11 10 9 9 10 11 12 13 15
10 11 11 11 10 8 7 5 6 6 7 7 7 7 7 6 6 6 5 7 7 8 11 13 15 19 19 18 16 13 12 12 12 10 9 8 7 7 8 8 9 11 12 13
12 7 8 8 7 6 5 5 7 6 6 6 6 5 4 4 4 5 6 6 4 5 9 11 14 18 19 17 14 11 11 11 12 9 9 8 6 6 5 6 7 8 9 11
5 6 9 9 9 8 7 8 9 8 6 7 6 5 4 4 2 3 4 6 3 3 7 10 14 16 17 16 13 10 10 10 10 10 10 9 8 5 3 4 4 5 5 7
9 12 13 14 12 12 12 11 9 10 9 8 7 6 4 3 2 3 6 7 4 5 6 9 12 14 15 15 12 10 10 10 10 10 10 10 8 7 5 3 3 3 3 4
13 14 15 15 13 14 14 13 13 11 8 7 5 4 2 2 4 5 7 7 7 5 6 8 10 13 14 14 12 10 10 10 11 11 10 10 10 9 8 6 4 2 2 3
13 15 16 17 16 15 15 13 11 9 7 5 3 1 1 4 6 8 8 9 9 8 7 8 9 11 12 12 10 10 10 10 10 11 10 10 10 10 9 8 5 4 4 3
14 15 17 18 18 15 12 10 9 8 6 3 1 2 5 7 7 10 10 11 12 10 10 9 9 10 10 11 10 12 10 10 9 10 10 10 11 11 10 8 7 6 5 5
15 16 17 16 15 12 10 8 7 5 3 2 3 4 6 7 8 8 11 11 15 12 12 10 10 11 11 12 12 13 13 13 13 12 11 12 12 12 10 8 7 7 7 6
16 15 15 13 12 10 6 5 4 3 3 3 4 5 6 8 9 8 12 15 16 14 12 12 12 14 14 15 15 16 16 16 15 14 14 13 13 13 12 9 9 10 11 10
16 15 14 12 9 6 5 2 2 3 2 1 4 5 7 7 8 13 15 16 15 14 13 12 15 17 17 18 19 18 19 21 19 18 17 16 14 13 12 12 13 12 13 13
13 11 10 9 6 5 3 1 1 1 1 4 6 8 8 8 11 13 14 15 15 15 15 16 16 16 15 15 15 16 17 18 19 20 20 19 18 16 15 13 13 13 13 13
10 10 8 5 4 5 4 3 3 1 3 5 7 8 10 10 11 13 14 15 16 17 17 17 17 14 14 16 17 18 17 17 18 20 19 20 22 20 17 15 14 13 12 10
Wind_Direction
199 113 58 12 7 34 58 86 81 112 84 41 30 30 31 28 25 22 17 17 11 19 19 19 21 18 20 26 18 25 30 29 24 24 25 27 31 31 35 38 39 31 32 42
276 199 52 22 9 23 48 81 96 105 85 55 46 37 45 33 27 29 25 21 21 18 21 24 20 16 20 16 17 26 30 27 25 24 29 27 30 29 37 40 40 47 43 41
253 116 94 15 6 19 57 42 26 62 67 94 63 52 44 36 35 29 23 18 15 15 15 17 23 23 21 17 23 27 29 28 23 24 27 27 31 33 34 33 41 42 41 36
266 151 118 131 61 90 75 42 57 100 120 117 96 72 51 37 33 29 25 21 17 16 12 11 15 24 24 28 29 28 28 27 25 24 27 29 32 33 36 37 38 40 40 37
279 69 105 117 26 347 7 62 27 27 150 166 162 114 52 32 34 32 27 23 25 25 21 15 15 18 25 30 31 31 25 23 24 26 25 26 28 29 33 39 41 41 39 37
295 225 200 78 328 294 293 67 22 29 42 46 206 49 20 23 26 28 33 35 33 31 32 27 18 23 24 28 27 25 22 22 24 28 29 27 27 28 31 38 41 43 44 40
349 106 109 354 314 254 237 92 77 60 53 64 83 75 90 40 32 29 32 30 32 35 36 28 23 25 30 26 26 21 25 29 31 30 28 26 28 33 36 32 36 37 39 37
292 346 164 350 118 81 111 106 116 93 90 94 104 98 75 51 35 29 28 27 30 35 34 29 26 24 25 23 17 21 24 26 30 30 31 32 29 27 29 29 32 32 32 33
17 87 63 10 66 53 110 117 113 110 112 109 100 84 74 59 47 39 36 34 35 40 39 35 31 28 25 16 18 25 26 27 30 31 34 34 33 30 30 30 31 32 32 31
172 105 93 70 75 65 73 75 97 115 119 119 117 107 81 64 50 45 38 37 36 41 39 33 27 25 24 17 21 29 31 28 31 35 36 37 36 35 36 31 31 31 29 28
88 117 110 75 91 93 86 86 88 82 87 95 108 97 97 81 67 55 47 42 41 41 36 30 24 21 19 18 22 28 30 27 25 27 30 33 38 38 39 42 42 37 30 28
111 140 99 119 126 108 100 92 92 100 86 73 84 88 88 77 61 51 46 42 41 38 34 26 23 21 20 19 23 27 29 26 24 24 25 25 23 23 34 41 40 40 39 36
125 95 106 117 98 108 99 96 91 89 86 87 73 77 73 70 55 54 49 43 38 35 31 26 22 22 23 23 21 24 27 22 20 24 25 24 23 22 15 22 36 35 33 34
116 112 101 137 127 108 107 100 95 88 84 85 86 79 80 81 72 61 49 42 40 39 32 25 23 21 18 18 18 19 20 20 18 14 17 18 22 25 29 26 20 20 30 29
146 86 115 118 116 114 120 122 101 93 95 87 84 87 84 83 71 57 45 37 43 36 30 25 21 17 13 9 9 11 12 9 10 12 12 14 21 26 29 28 27 22 19 24
106 104 117 124 131 134 129 123 112 106 102 102 100 86 79 85 77 58 57 40 38 26 17 17 16 8 3 0 2 1 2 2 1 1 1 4 12 19 25 27 29 28 27 20
125 130 138 143 147 141 125 122 120 118 111 114 115 108 93 99 83 62 49 29 20 14 15 13 4 2 358 359 359 354 352 353 359 359 2 359 356 6 18 23 25 29 31 31
96 137 160 155 148 140 124 112 121 133 130 136 137 126 111 113 89 36 4 348 342 359 4 3 2 359 1 1 359 354 354 354 354 355 353 358 356 344 347 4 15 21 26 30
110 113 117 124 136 137 137 138 136 138 135 135 139 134 121 90 36 350 344 351 337 332 345 351 356 357 1 3 0 359 359 360 359 358 358 350 351 350 323 320 344 7 16 20
109 110 114 116 126 136 135 141 140 137 137 138 132 131 129 6 352 346 329 310 298 295 327 343 351 357 4 8 10 6 4 3 358 354 353 356 355 350 337 318 313 323 335 345
119 126 127 129 127 133 135 138 144 148 145 139 123 125 306 317 318 316 317 315 321 298 314 329 341 354 1 3 4 359 357 355 352 351 348 348 348 347 343 342 330 316 307 305
142 137 138 137 134 134 143 144 144 142 141 142 155 309 313 321 323 318 322 316 323 302 296 305 320 337 341 344 342 347 344 339 338 340 338 336 333 330 327 328 325 320 315 306
145 143 141 146 149 148 147 151 154 157 176 241 286 304 310 320 329 325 332 337 330 308 293 292 308 316 319 318 319 320 320 323 327 320 321 320 322 322 318 303 306 313 311 306
147 150 150 150 145 145 156 177 193 220 258 279 324 334 326 323 326 339 334 336 337 325 304 292 304 309 305 302 303 304 303 303 302 305 306 311 310 311 309 312 296 301 300 296
156 155 157 158 163 168 152 164 217 218 234 296 344 338 329 321 312 326 332 335 336 336 324 309 308 313 312 308 301 299 302 298 292 290 289 290 295 292 296 291 294 299 301 293
162 168 171 172 159 166 175 237 231 155 1 336 342 344 339 331 331 333 336 336 336 334 329 325 323 320 318 321 324 324 322 323 319 303 287 278 278 278 279 283 285 288 297 292
164 167 170 178 208 223 234 215 156 78 356 343 337 346 343 345 342 340 340 340 338 336 335 331 330 327 325 326 325 323 322 321 322 322 314 312 280 268 268 271 276 281 286 291
Height
784 785 783 787 780 765 759 755 760 787 793 803 806 806 809 808 804 798 791 787 784 776 773 771 766 764 761 750 759 751 741 739 738 734 730 724 718 717 715 712 708 709 707 704
777 777 777 789 788 777 774 778 786 789 799 810 813 814 813 812 809 806 805 803 799 797 791 781 778 772 764 764 761 758 751 747 746 740 734 731 727 725 721 719 717 711 711 710
764 773 775 785 798 795 790 788 782 782 804 814 816 815 818 818 817 815 811 809 805 802 797 791 785 781 777 773 764 759 758 756 752 748 745 741 738 733 728 727 723 720 718 716
761 771 772 794 803 801 800 804 803 805 810 814 818 821 823 823 821 820 818 815 813 809 802 798 793 788 785 779 774 771 768 764 760 757 755 752 748 744 739 735 733 728 724 723
763 767 784 794 803 801 798 808 813 809 808 813 816 813 825 828 827 825 823 820 815 811 809 805 800 798 794 787 783 779 775 771 767 765 763 759 755 751 748 743 739 737 735 731
769 763 767 800 806 804 800 798 814 814 813 812 809 805 825 832 831 829 827 824 820 819 815 811 807 803 797 792 788 784 782 780 775 770 767 765 761 757 754 751 750 747 743 740
779 774 792 807 804 801 790 808 818 818 818 814 819 827 835 835 834 833 830 826 823 820 817 815 811 807 802 798 795 794 791 787 782 780 776 773 770 764 762 760 757 753 750 746
783 780 785 808 800 793 812 818 820 821 823 824 829 834 837 838 838 835 832 830 827 824 820 817 813 811 809 806 805 802 797 795 791 787 785 782 779 775 771 768 764 760 757 754
800 803 813 813 812 815 814 818 822 823 826 828 832 837 840 842 843 840 838 837 834 830 827 824 823 823 821 818 814 809 807 804 799 796 792 788 784 781 777 774 771 768 766 763
802 811 813 817 819 820 821 823 823 828 831 833 836 839 842 843 843 842 842 839 837 834 832 830 828 827 824 822 818 814 811 808 805 802 798 794 792 790 787 783 780 776 774 771
806 812 816 819 821 823 826 827 830 833 834 836 838 842 844 846 846 845 843 841 839 836 835 833 832 831 828 827 822 817 815 811 808 804 802 800 799 797 795 793 790 785 781 779
798 805 809 818 823 825 827 830 833 834 837 839 840 842 843 844 845 844 842 841 840 839 838 838 836 833 830 828 824 821 817 814 812 809 807 805 803 802 799 796 792 789 786 783
805 811 814 820 824 827 829 833 835 837 839 840 842 843 843 844 844 844 843 843 843 842 842 841 839 836 833 829 826 824 821 819 817 814 812 810 807 804 800 797 794 791 788 785
811 813 819 822 825 829 832 836 837 839 841 842 844 845 846 847 848 848 848 848 847 846 845 843 841 838 835 831 828 826 824 821 818 816 813 811 808 806 804 802 798 795 792 789
813 814 815 823 829 833 835 838 838 840 843 844 846 848 849 850 851 851 851 850 850 849 848 845 843 840 837 834 830 828 825 823 820 818 816 813 810 808 806 804 802 799 796 793
817 820 823 825 831 834 836 838 839 842 845 847 849 851 852 852 852 852 852 852 852 851 849 847 845 842 839 835 831 829 826 824 822 819 817 814 812 811 808 807 805 803 800 798
817 823 826 829 831 835 838 840 841 845 849 850 852 853 853 854 854 854 853 853 853 852 850 848 846 842 839 835 832 830 828 825 822 820 818 816 813 812 810 809 807 805 803 801
815 817 821 825 831 836 840 842 846 849 851 853 853 854 854 855 855 854 854 853 852 851 849 848 845 842 839 835 833 830 828 826 823 820 818 816 814 812 811 810 808 807 805 803
819 821 824 828 833 837 842 846 848 850 852 853 854 854 855 854 854 853 852 852 850 849 848 846 844 841 838 835 833 831 829 826 823 821 819 816 814 812 811 810 808 807 806 805
824 826 829 833 836 839 842 846 848 850 852 853 853 854 854 854 853 852 851 850 848 847 846 844 842 840 837 835 832 831 828 826 824 822 819 817 815 812 811 809 808 807 806 805
826 829 831 834 838 841 844 847 849 850 852 852 853 853 853 853 852 851 849 848 846 844 843 842 840 838 835 834 832 830 828 826 824 821 819 817 815 813 811 809 807 806 806 804
828 831 834 837 839 842 846 847 849 850 851 851 852 852 851 851 850 848 847 846 842 841 840 839 837 835 834 832 831 829 827 825 823 821 819 817 815 812 810 808 807 805 804 803
829 832 835 838 841 843 845 847 848 849 850 850 850 850 849 849 848 846 844 842 840 838 836 836 834 833 831 830 828 826 824 822 820 818 816 814 812 810 808 806 805 803 802 801
831 834 837 840 842 844 846 846 847 848 848 848 848 848 847 846 845 844 842 839 837 834 832 832 830 829 827 826 824 822 820 818 816 814 812 810 808 807 805 804 802 801 800 798
832 835 838 840 842 843 844 845 846 846 846 847 846 846 845 844 843 841 839 836 834 832 829 828 827 825 822 820 818 816 814 812 810 808 807 805 804 803 801 800 799 798 797 795
832 835 837 839 840 841 842 843 844 844 845 845 844 843 842 841 840 838 836 834 832 829 827 825 823 820 818 816 814 811 809 806 804 802 800 798 797 797 796 795 794 794 793 791
833 835 837 838 839 840 841 842 843 844 843 843 843 842 841 840 838 836 834 832 829 827 825 822 820 817 815 812 810 807 805 802 800 797 794 792 790 789 789 789 788 788 788 787